Time,TemperatureF,DewpointF,PressureIn,WindDirection,WindDirectionDegrees,WindSpeedMPH,WindSpeedGustMPH,Humidity,HourlyPrecipIn,Conditions,Clouds,dailyrainin,SolarRadiationWatts/m^2,SoftwareType,DateUTC
2013-05-28 00:12:00,76.0,63.0,-100.00,East,80,9.0,20.0,65,0.00,,,0.00,1.000000,,2013-05-28 05:12:00,
2013-05-28 00:22:00,76.0,63.0,-100.00,East,80,9.0,20.0,65,0.00,,,0.00,1.000000,,2013-05-28 05:22:00,
2013-05-28 00:33:00,76.0,63.0,-100.00,East,80,9.0,20.0,65,0.00,,,0.00,1.000000,,2013-05-28 05:33:00,
2013-05-28 00:42:00,76.0,63.0,-100.00,East,80,9.0,20.0,65,0.00,,,0.00,1.000000,,2013-05-28 05:42:00,
2013-05-28 00:52:00,76.0,63.0,-100.00,East,80,9.0,20.0,65,0.00,,,0.00,1.000000,,2013-05-28 05:52:00,
2013-05-28 01:12:00,75.0,65.0,-100.00,ENE,61,7.0,16.0,71,0.00,,,0.00,1.000000,,2013-05-28 06:12:00,
2013-05-28 01:21:00,75.0,65.0,-100.00,ENE,61,7.0,16.0,71,0.00,,,0.00,1.000000,,2013-05-28 06:21:00,
2013-05-28 01:32:00,75.0,65.0,-100.00,ENE,61,7.0,16.0,71,0.00,,,0.00,1.000000,,2013-05-28 06:32:00,
2013-05-28 01:42:00,75.0,65.0,-100.00,ENE,61,7.0,16.0,71,0.00,,,0.00,1.000000,,2013-05-28 06:42:00,
2013-05-28 01:51:00,75.0,65.0,-100.00,ENE,61,7.0,16.0,71,0.00,,,0.00,1.000000,,2013-05-28 06:51:00,
2013-05-28 02:11:00,74.0,65.0,-100.00,NE,47,7.0,13.0,74,0.00,,,0.00,1.000000,,2013-05-28 07:11:00,
2013-05-28 02:21:00,74.0,65.0,-100.00,NE,47,7.0,13.0,74,0.00,,,0.00,1.000000,,2013-05-28 07:21:00,
2013-05-28 02:32:00,74.0,65.0,-100.00,NE,47,7.0,13.0,74,0.00,,,0.00,1.000000,,2013-05-28 07:32:00,
2013-05-28 02:42:00,74.0,65.0,-100.00,NE,47,7.0,13.0,74,0.00,,,0.00,1.000000,,2013-05-28 07:42:00,
2013-05-28 02:52:00,74.0,65.0,-100.00,NE,47,7.0,13.0,74,0.00,,,0.00,1.000000,,2013-05-28 07:52:00,
2013-05-28 03:12:00,73.0,65.0,-100.00,ENE,61,5.0,11.0,77,0.00,,,0.00,1.000000,,2013-05-28 08:12:00,
2013-05-28 03:22:00,73.0,65.0,-100.00,ENE,61,5.0,11.0,77,0.00,,,0.00,1.000000,,2013-05-28 08:22:00,
2013-05-28 03:32:00,73.0,65.0,-100.00,ENE,61,5.0,11.0,77,0.00,,,0.00,1.000000,,2013-05-28 08:32:00,
2013-05-28 03:42:00,73.0,65.0,-100.00,ENE,61,5.0,11.0,77,0.00,,,0.00,1.000000,,2013-05-28 08:42:00,
2013-05-28 03:51:00,73.0,65.0,-100.00,ENE,61,5.0,11.0,77,0.00,,,0.00,1.000000,,2013-05-28 08:51:00,
2013-05-28 03:53:00,72.0,65.0,-100.00,NE,54,6.0,11.0,79,0.00,,,0.00,1.000000,,2013-05-28 08:53:00,
2013-05-28 04:11:00,72.0,65.0,-100.00,NE,54,6.0,11.0,79,0.00,,,0.00,1.000000,,2013-05-28 09:11:00,
2013-05-28 04:21:00,72.0,65.0,-100.00,NE,54,6.0,11.0,79,0.00,,,0.00,1.000000,,2013-05-28 09:21:00,
2013-05-28 04:33:00,72.0,65.0,-100.00,NE,54,6.0,11.0,79,0.00,,,0.00,1.000000,,2013-05-28 09:33:00,
2013-05-28 04:42:00,72.0,65.0,-100.00,NE,54,6.0,11.0,79,0.00,,,0.00,1.000000,,2013-05-28 09:42:00,
2013-05-28 04:53:00,72.0,65.0,-100.00,ENE,75,8.0,15.0,80,0.00,,,0.00,1.000000,,2013-05-28 09:53:00,
2013-05-28 05:12:00,72.0,65.0,-100.00,ENE,75,8.0,15.0,80,0.00,,,0.00,1.000000,,2013-05-28 10:12:00,
2013-05-28 05:23:00,72.0,65.0,-100.00,ENE,75,8.0,15.0,80,0.00,,,0.00,1.000000,,2013-05-28 10:23:00,
2013-05-28 05:32:00,72.0,65.0,-100.00,ENE,75,8.0,15.0,80,0.00,,,0.00,1.000000,,2013-05-28 10:32:00,
2013-05-28 05:42:00,72.0,65.0,-100.00,ENE,75,8.0,15.0,80,0.00,,,0.00,1.000000,,2013-05-28 10:42:00,
2013-05-28 06:11:00,71.0,65.0,-100.00,ENE,63,8.0,14.0,81,0.00,,,0.00,1.000000,,2013-05-28 11:11:00,
2013-05-28 06:22:00,71.0,65.0,-100.00,ENE,63,8.0,14.0,81,0.00,,,0.00,1.000000,,2013-05-28 11:22:00,
2013-05-28 06:32:00,71.0,65.0,-100.00,ENE,63,8.0,14.0,81,0.00,,,0.00,1.000000,,2013-05-28 11:32:00,
2013-05-28 06:42:00,71.0,65.0,-100.00,ENE,63,8.0,14.0,81,0.00,,,0.00,1.000000,,2013-05-28 11:42:00,
2013-05-28 06:52:00,71.0,65.0,-100.00,ENE,63,8.0,14.0,81,0.00,,,0.00,1.000000,,2013-05-28 11:52:00,
2013-05-28 07:11:00,72.0,66.0,-100.00,ENE,74,8.0,13.0,82,0.00,,,0.00,28.000000,,2013-05-28 12:11:00,
2013-05-28 07:21:00,72.0,66.0,-100.00,ENE,74,8.0,13.0,82,0.00,,,0.00,28.000000,,2013-05-28 12:21:00,
2013-05-28 07:32:00,72.0,66.0,-100.00,ENE,74,8.0,13.0,82,0.00,,,0.00,28.000000,,2013-05-28 12:32:00,
2013-05-28 07:42:00,72.0,66.0,-100.00,ENE,74,8.0,13.0,82,0.00,,,0.00,28.000000,,2013-05-28 12:42:00,
2013-05-28 07:52:00,72.0,66.0,-100.00,ENE,74,8.0,13.0,82,0.00,,,0.00,28.000000,,2013-05-28 12:52:00,
2013-05-28 08:11:00,73.0,66.0,-100.00,ENE,68,7.0,15.0,79,0.00,,,0.00,162.000000,,2013-05-28 13:11:00,
2013-05-28 08:21:00,73.0,66.0,-100.00,ENE,68,7.0,15.0,79,0.00,,,0.00,162.000000,,2013-05-28 13:21:00,
2013-05-28 08:32:00,73.0,66.0,-100.00,ENE,68,7.0,15.0,79,0.00,,,0.00,162.000000,,2013-05-28 13:32:00,
2013-05-28 08:42:00,73.0,66.0,-100.00,ENE,68,7.0,15.0,79,0.00,,,0.00,162.000000,,2013-05-28 13:42:00,
2013-05-28 08:52:00,73.0,66.0,-100.00,ENE,68,7.0,15.0,79,0.00,,,0.00,162.000000,,2013-05-28 13:52:00,
2013-05-28 09:11:00,75.0,67.0,-100.00,ENE,67,12.0,24.0,77,0.00,,,0.00,337.000000,,2013-05-28 14:11:00,
2013-05-28 09:21:00,75.0,67.0,-100.00,ENE,67,12.0,24.0,77,0.00,,,0.00,337.000000,,2013-05-28 14:21:00,
2013-05-28 09:32:00,75.0,67.0,-100.00,ENE,67,12.0,24.0,77,0.00,,,0.00,337.000000,,2013-05-28 14:32:00,
2013-05-28 09:42:00,75.0,67.0,-100.00,ENE,67,12.0,24.0,77,0.00,,,0.00,337.000000,,2013-05-28 14:42:00,
2013-05-28 09:52:00,75.0,67.0,-100.00,ENE,67,12.0,24.0,77,0.00,,,0.00,337.000000,,2013-05-28 14:52:00,
2013-05-28 10:11:00,77.0,66.0,-100.00,ENE,78,14.0,25.0,70,0.00,,,0.00,561.000000,,2013-05-28 15:11:00,
2013-05-28 10:21:00,77.0,66.0,-100.00,ENE,78,14.0,25.0,70,0.00,,,0.00,561.000000,,2013-05-28 15:21:00,
2013-05-28 10:33:00,77.0,66.0,-100.00,ENE,78,14.0,25.0,70,0.00,,,0.00,561.000000,,2013-05-28 15:33:00,
2013-05-28 10:43:00,77.0,66.0,-100.00,ENE,78,14.0,25.0,70,0.00,,,0.00,561.000000,,2013-05-28 15:43:00,
2013-05-28 10:52:00,77.0,66.0,-100.00,ENE,78,14.0,25.0,70,0.00,,,0.00,561.000000,,2013-05-28 15:52:00,
2013-05-28 11:13:00,79.0,66.0,-100.00,ENE,73,14.0,23.0,64,0.00,,,0.00,808.000000,,2013-05-28 16:13:00,
2013-05-28 11:22:00,79.0,66.0,-100.00,ENE,73,14.0,23.0,64,0.00,,,0.00,808.000000,,2013-05-28 16:22:00,
2013-05-28 11:33:00,79.0,66.0,-100.00,ENE,73,14.0,23.0,64,0.00,,,0.00,808.000000,,2013-05-28 16:33:00,
2013-05-28 11:42:00,79.0,66.0,-100.00,ENE,73,14.0,23.0,64,0.00,,,0.00,808.000000,,2013-05-28 16:42:00,
2013-05-28 11:52:00,79.0,66.0,-100.00,ENE,73,14.0,23.0,64,0.00,,,0.00,808.000000,,2013-05-28 16:52:00,
2013-05-28 12:12:00,82.0,66.0,-100.00,East,81,12.0,25.0,59,0.00,,,0.00,907.000000,,2013-05-28 17:12:00,
2013-05-28 12:22:00,82.0,66.0,-100.00,East,81,12.0,25.0,59,0.00,,,0.00,907.000000,,2013-05-28 17:22:00,
2013-05-28 12:32:00,82.0,66.0,-100.00,East,81,12.0,25.0,59,0.00,,,0.00,907.000000,,2013-05-28 17:32:00,
2013-05-28 12:42:00,82.0,66.0,-100.00,East,81,12.0,25.0,59,0.00,,,0.00,907.000000,,2013-05-28 17:42:00,
2013-05-28 12:51:00,82.0,66.0,-100.00,East,81,12.0,25.0,59,0.00,,,0.00,907.000000,,2013-05-28 17:51:00,
2013-05-28 13:11:00,84.0,64.0,-100.00,East,79,10.0,22.0,52,0.00,,,0.00,999.000000,,2013-05-28 18:11:00,
2013-05-28 13:21:00,84.0,64.0,-100.00,East,79,10.0,22.0,52,0.00,,,0.00,999.000000,,2013-05-28 18:21:00,
2013-05-28 13:32:00,84.0,64.0,-100.00,East,79,10.0,22.0,52,0.00,,,0.00,999.000000,,2013-05-28 18:32:00,
2013-05-28 13:42:00,84.0,64.0,-100.00,East,79,10.0,22.0,52,0.00,,,0.00,999.000000,,2013-05-28 18:42:00,
2013-05-28 13:52:00,84.0,64.0,-100.00,East,79,10.0,22.0,52,0.00,,,0.00,999.000000,,2013-05-28 18:52:00,
2013-05-28 14:11:00,83.0,62.0,-100.00,East,86,11.0,24.0,50,0.00,,,0.00,887.000000,,2013-05-28 19:11:00,
2013-05-28 14:21:00,83.0,62.0,-100.00,East,86,11.0,24.0,50,0.00,,,0.00,887.000000,,2013-05-28 19:21:00,
2013-05-28 14:32:00,83.0,62.0,-100.00,East,86,11.0,24.0,50,0.00,,,0.00,887.000000,,2013-05-28 19:32:00,
2013-05-28 14:42:00,83.0,62.0,-100.00,East,86,11.0,24.0,50,0.00,,,0.00,887.000000,,2013-05-28 19:42:00,
2013-05-28 14:52:00,83.0,62.0,-100.00,East,86,11.0,24.0,50,0.00,,,0.00,887.000000,,2013-05-28 19:52:00,
2013-05-28 15:11:00,85.0,62.0,-100.00,ENE,75,11.0,19.0,46,0.00,,,0.00,844.000000,,2013-05-28 20:11:00,
2013-05-28 15:22:00,85.0,62.0,-100.00,ENE,75,11.0,19.0,46,0.00,,,0.00,844.000000,,2013-05-28 20:22:00,
2013-05-28 15:32:00,85.0,62.0,-100.00,ENE,75,11.0,19.0,46,0.00,,,0.00,844.000000,,2013-05-28 20:32:00,
2013-05-28 15:42:00,85.0,62.0,-100.00,ENE,75,11.0,19.0,46,0.00,,,0.00,844.000000,,2013-05-28 20:42:00,
2013-05-28 15:52:00,85.0,62.0,-100.00,ENE,75,11.0,19.0,46,0.00,,,0.00,844.000000,,2013-05-28 20:52:00,
2013-05-28 15:53:00,86.0,61.0,-100.00,East,81,13.0,23.0,43,0.00,,,0.00,793.000000,,2013-05-28 20:53:00,
2013-05-28 16:11:00,86.0,61.0,-100.00,East,81,13.0,23.0,43,0.00,,,0.00,793.000000,,2013-05-28 21:11:00,
2013-05-28 16:21:00,86.0,61.0,-100.00,East,81,13.0,23.0,43,0.00,,,0.00,793.000000,,2013-05-28 21:21:00,
2013-05-28 16:33:00,86.0,61.0,-100.00,East,81,13.0,23.0,43,0.00,,,0.00,793.000000,,2013-05-28 21:33:00,
2013-05-28 16:43:00,86.0,61.0,-100.00,East,81,13.0,23.0,43,0.00,,,0.00,793.000000,,2013-05-28 21:43:00,
2013-05-28 17:12:00,86.0,62.0,-100.00,ENE,73,11.0,25.0,45,0.00,,,0.00,709.000000,,2013-05-28 22:12:00,
2013-05-28 17:22:00,86.0,62.0,-100.00,ENE,73,11.0,25.0,45,0.00,,,0.00,709.000000,,2013-05-28 22:22:00,
2013-05-28 17:33:00,86.0,62.0,-100.00,ENE,73,11.0,25.0,45,0.00,,,0.00,709.000000,,2013-05-28 22:33:00,
2013-05-28 17:42:00,86.0,62.0,-100.00,ENE,73,11.0,25.0,45,0.00,,,0.00,709.000000,,2013-05-28 22:42:00,
2013-05-28 17:52:00,86.0,62.0,-100.00,ENE,73,11.0,25.0,45,0.00,,,0.00,709.000000,,2013-05-28 22:52:00,
2013-05-28 18:11:00,84.0,60.0,-100.00,East,86,9.0,21.0,45,0.00,,,0.00,376.000000,,2013-05-28 23:11:00,
2013-05-28 18:22:00,84.0,60.0,-100.00,East,86,9.0,21.0,45,0.00,,,0.00,376.000000,,2013-05-28 23:22:00,
2013-05-28 18:32:00,84.0,60.0,-100.00,East,86,9.0,21.0,45,0.00,,,0.00,376.000000,,2013-05-28 23:32:00,
2013-05-28 18:42:00,84.0,60.0,-100.00,East,86,9.0,21.0,45,0.00,,,0.00,376.000000,,2013-05-28 23:42:00,
2013-05-28 18:52:00,84.0,60.0,-100.00,East,86,9.0,21.0,45,0.00,,,0.00,376.000000,,2013-05-28 23:52:00,
2013-05-28 19:11:00,83.0,62.0,-100.00,ENE,78,7.0,18.0,50,0.00,,,0.00,242.000000,,2013-05-29 00:11:00,
2013-05-28 19:21:00,83.0,62.0,-100.00,ENE,78,7.0,18.0,50,0.00,,,0.00,242.000000,,2013-05-29 00:21:00,
2013-05-28 19:32:00,83.0,62.0,-100.00,ENE,78,7.0,18.0,50,0.00,,,0.00,242.000000,,2013-05-29 00:32:00,
2013-05-28 19:41:00,83.0,62.0,-100.00,ENE,78,7.0,18.0,50,0.00,,,0.00,242.000000,,2013-05-29 00:41:00,
2013-05-28 19:52:00,83.0,62.0,-100.00,ENE,78,7.0,18.0,50,0.00,,,0.00,242.000000,,2013-05-29 00:52:00,
2013-05-28 20:11:00,81.0,63.0,-100.00,ENE,64,6.0,14.0,54,0.00,,,0.00,69.000000,,2013-05-29 01:11:00,
2013-05-28 20:22:00,81.0,63.0,-100.00,ENE,64,6.0,14.0,54,0.00,,,0.00,69.000000,,2013-05-29 01:22:00,
2013-05-28 20:32:00,81.0,63.0,-100.00,ENE,64,6.0,14.0,54,0.00,,,0.00,69.000000,,2013-05-29 01:32:00,
2013-05-28 20:42:00,81.0,63.0,-100.00,ENE,64,6.0,14.0,54,0.00,,,0.00,69.000000,,2013-05-29 01:42:00,
2013-05-28 20:52:00,81.0,63.0,-100.00,ENE,64,6.0,14.0,54,0.00,,,0.00,69.000000,,2013-05-29 01:52:00,
2013-05-28 21:12:00,78.0,64.0,-100.00,ENE,60,4.0,9.0,62,0.00,,,0.00,6.000000,,2013-05-29 02:12:00,
2013-05-28 21:21:00,78.0,64.0,-100.00,ENE,60,4.0,9.0,62,0.00,,,0.00,6.000000,,2013-05-29 02:21:00,
2013-05-28 21:32:00,78.0,64.0,-100.00,ENE,60,4.0,9.0,62,0.00,,,0.00,6.000000,,2013-05-29 02:32:00,
2013-05-28 21:42:00,78.0,64.0,-100.00,ENE,60,4.0,9.0,62,0.00,,,0.00,6.000000,,2013-05-29 02:42:00,
2013-05-28 21:51:00,78.0,64.0,-100.00,ENE,60,4.0,9.0,62,0.00,,,0.00,6.000000,,2013-05-29 02:51:00,
2013-05-28 21:53:00,77.0,65.0,-100.00,ENE,63,5.0,10.0,67,0.00,,,0.00,1.000000,,2013-05-29 02:53:00,
2013-05-28 22:12:00,77.0,65.0,-100.00,ENE,63,5.0,10.0,67,0.00,,,0.00,1.000000,,2013-05-29 03:12:00,
2013-05-28 22:21:00,77.0,65.0,-100.00,ENE,63,5.0,10.0,67,0.00,,,0.00,1.000000,,2013-05-29 03:21:00,
2013-05-28 22:33:00,77.0,65.0,-100.00,ENE,63,5.0,10.0,67,0.00,,,0.00,1.000000,,2013-05-29 03:33:00,
2013-05-28 22:43:00,77.0,65.0,-100.00,ENE,63,5.0,10.0,67,0.00,,,0.00,1.000000,,2013-05-29 03:43:00,
2013-05-28 23:13:00,76.0,64.0,-100.00,NE,52,6.0,10.0,66,0.00,,,0.00,1.000000,,2013-05-29 04:13:00,
2013-05-28 23:23:00,76.0,64.0,-100.00,NE,52,6.0,10.0,66,0.00,,,0.00,1.000000,,2013-05-29 04:23:00,
2013-05-28 23:33:00,76.0,64.0,-100.00,NE,52,6.0,10.0,66,0.00,,,0.00,1.000000,,2013-05-29 04:33:00,
2013-05-28 23:42:00,76.0,64.0,-100.00,NE,52,6.0,10.0,66,0.00,,,0.00,1.000000,,2013-05-29 04:42:00,
2013-05-28 23:52:00,76.0,64.0,-100.00,NE,52,6.0,10.0,66,0.00,,,0.00,1.000000,,2013-05-29 04:52:00,